234  
ASUS43 KIWX 232110  
RWRIWX  
 
KIWX WEATHER ROUNDUP  
NATIONAL WEATHER SERVICE NORTHERN INDIANA  
400 PM EST SUN FEB 23 2020  
 
NOTE: "FAIR" INDICATES FEW OR NO CLOUDS BELOW 12,000 FEET WITH NO  
SIGNIFICANT WEATHER AND/OR S TO VISIBILITY
.  
 
* THESE STATIONS ARE NOT UNDER NWS QUALITY CONTROL. THEY ALSO MAY NOT  
REPORT WEATHER SUCH AS PRECIPITATION OR FOG.
 
 
INZ001>027-232200-  
NORTHERN INDIANA  
 
CITY SKY/WX TMP DP RH WIND PRES REMARKS
 
GARY* MOSUNNY 55 30 38 SW14 29.93S  
VALPARAISO FAIR 55 37 50 SW15G21 29.93S  
MICHIGAN CITY* FAIR 55 43 62 SW18 29.93R  
LAPORTE* FAIR 54 37 51 SW13G18 29.93S  
KNOX* FAIR 54 36 50 SW15 29.93S  
SOUTH BEND FAIR 55 35 47 SW16G24 29.93S  
ELKHART* FAIR 55 34 44 S10G18 29.92  
GOSHEN FAIR 53 34 48 SW15G28 29.92F  
MONTICELLO* FAIR 53 33 46 SW13G20 29.96S  
LOGANSPORT* FAIR 54 36 50 SW14 29.97F  
ROCHESTER* FAIR 55 32 41 SW13 29.95F  
WARSAW* FAIR 52 32 46 SW10G16 29.94S  
KENDALLVILLE* FAIR 51 30 44 SW15 29.93S  
AUBURN* FAIR 52 32 46 SW10G17 29.95S  
FORT WAYNE FAIR 53 33 46 SW21G26 29.96F  
HUNTINGTON* N/A 53 32 44 SW13G18 29.96F  
PERU/GRISSOM FAIR 54 36 50 SW14 29.96S  
 

 
INZ028>050-232200-  
CENTRAL INDIANA  
 
CITY SKY/WX TMP DP RH WIND PRES REMARKS
 
LAFAYETTE FAIR 55 34 45 SW9G20 29.97F  
KOKOMO* FAIR 53 36 52 SW17 29.98F  
MUNCIE* FAIR 54 30 40 SW13G22 29.99S  
INDIANAPOLIS FAIR 52 30 43 S13 30.00F  
 

 
MIZ043>046-050>051-056>058-064>065-071>073-077>080-232200-  
SOUTHWEST LOWER MICHIGAN  
 
CITY SKY/WX TMP DP RH WIND PRES REMARKS
 
BATTLE CREEK FAIR 51 33 50 SW17 29.90S  
BENTON HARBOR FAIR 51 32 48 W13 29.91F  
COLDWATER* FAIR 50 32 50 SW17G23 29.91S  
HILLSDALE* FAIR 50 32 50 SW13G18 29.90S  
HOLLAND FAIR 47 32 56 SW21G26 29.90S  
GRAND RAPIDS FAIR 47 30 51 W16 29.88S  
KALAMAZOO FAIR 53 33 46 SW14 29.91S  
STURGIS* FAIR 52 35 51 SW17 29.91S  
THREE RIVERS* FAIR 52 33 47 SW15 29.91S  
 

 
OHZ001>008-015>018-024>025-232200-  
NORTHWEST OHIO  
 
CITY SKY/WX TMP DP RH WIND PRES REMARKS
 
DEFIANCE FAIR 52 32 46 S16G24 29.95F  
FINDLAY FAIR 52 27 38 SW17 29.97S  
OTTAWA* FAIR 52 21 30 SW18 29.99S  
TOLEDO EXPRESS FAIR 54 28 36 S13 29.94F  
LIMA FAIR 51 27 39 S16G23 29.99R  
 

 
AND FOR LAKE MICHIGAN COASTAL AND OPEN LAKE BUOY OBSERVATIONS  
 
STATION/POSITION TEMP WIND PRES VSBY WAVE
 
AIR SEA DIR/SP/G HT/PER  
(F) (DEG/KT/KT) (MB) (MI) (FT/S)  
CALUMET HARBOR 53 210/ 11/ 15 1012.5  
MICHIGAN CITY 45 240/ 11/ 12 N/A  
 

 

 
 
 
CLICK HERE TO GO TO PREVIOUS BULLETINS.

The Nexlab IN Page
The Nexlab OH Page
The Nexlab MI Page Main Text Page